Starlink 30358

operational
NORAD ID: 57879 Int'l Des: 2023-144 Owner: SPXS Country: US Constellation: starlink
LEOCIRCULAR

Über Starlink 30358

Beschreibung wird geladen...

Live-Position

3D-Globus wird geladen...

Nächste Überflüge

Höhenverlauf

Altitude vs Time

uPlot chart will show altitude changes over time

Zweizeiliger Elementsatz

1 57879U 23144R 25352.33842501 .00000260 00000-0 34325-4 0 9992
2 57879 43.0059 9.4853 0001342 268.5183 91.5506 15.02535207125375
Epoch: 18. Dez. 2025 • Age: 18 hours

Aktueller Status

Höhe 562.3 km
Geschwindigkeit 7.59 km/s
Subsatellitenpunkt 39.43°N, 50.83°W
Startdatum 16. Sept. 2023
Alter 2.2 years
Typ internet

Technische Details

Klassifizierung Payload
Masse 730.00 kg
Trockenmasse 700.00 kg
Gesamtmasse 730.00 kg
Länge 0.30 m
Durchmesser 4.10 m
Spannweite 29.00 m
Form Box + pan
Hersteller SPXS
Bus-Typ Starlink V2M
Phasenstatus In Orbit
Besitzer/Staat SPXS/US

Große Konstellationen

Loading constellations...